Weather History for KSGF - September, 2012

Change the Weather History Date:

Tuesday, September 11, 2012

  Actual Average Record
Temperature  
Mean Temperature 72 °F 71 °F  
Max Temperature 85 °F 82 °F 96 °F (2000)
Min Temperature 58 °F 60 °F 37 °F (1940)
Degree Days  
Heating Degree Days 0 1  
Month to date heating degree days 3 3  
Since 1 July heating degree days 3 5  
Cooling Degree Days 7 7  
Month to date cooling degree days 108 92  
Year to date cooling degree days 1698 1278  
Growing Degree Days 20 (Base 50)    
Moisture  
Dew Point 55 °F    
Average Humidity 58    
Maximum Humidity 78    
Minimum Humidity 37    
Precipitation  
Precipitation 0.00 in 0.16 in 2.09 in (1947)
Month to date precipitation 1.50 1.68  
Year to date precipitation 20.91 31.79  
Snow  
Snow 0.00 in - - ()
Month to date snowfall 0.0  
Since 1 July snowfall 0.0  
Since 1 September snowfall 0.0  
Snow Depth 0.00 in    
Sea Level Pressure  
Sea Level Pressure 30.07 in    
Wind  
Wind Speed 11 mph (SSE)    
Max Wind Speed 16 mph    
Max Gust Speed 23 mph    
Visibility 10 miles    
Events      
T = Trace of Precipitation, MM = Missing Value Source: NWS Daily Summary

Daily Weather History Graph

Daily Weather History Graph

Search for Another Location

Airport or City:

Trip Planner

Search our weather history database for the weather conditions in past years. The results will help you decide how hot, cold, wet, or windy it might be!

Date:

Astronomy

Sep. 11, 2012 Rise Set
Actual Time 6:52 AM CDT 7:26 PM CDT
Civil Twilight 6:26 AM CDT 7:52 PM CDT
Nautical Twilight 5:55 AM CDT 8:23 PM CDT
Astronomical Twilight 5:23 AM CDT 8:55 PM CDT
Moon 2:15 AM CDT (9/11) 4:33 PM CDT (9/11)
Length of Visible Light 13h 26m
Length of Day
12h 33m
Waning Crescent, 21% of the Moon is Illuminated
Sep 11
Waning Crescent
Sep 15
New
Sep 22
First Quarter
Sep 29
Full
Oct 8
Last Quarter

Hourly Weather History & Observations

Time (CDT) Temp. Heat Index Dew Point Humidity Pressure Visibility Wind Dir Wind Speed Gust Speed Precip Events Conditions
12:52 AM 62.1 °F - 52.0 °F 70% 30.08 in 10.0 mi SSE 11.5 mph - N/A   Clear
1:52 AM 62.1 °F - 52.0 °F 70% 30.07 in 10.0 mi SSE 15.0 mph - N/A   Clear
2:52 AM 62.1 °F - 52.0 °F 70% 30.07 in 10.0 mi SSE 12.7 mph - N/A   Clear
3:52 AM 60.1 °F - 52.0 °F 75% 30.06 in 10.0 mi SSE 10.4 mph - N/A   Clear
4:52 AM 59.0 °F - 52.0 °F 78% 30.07 in 10.0 mi SSE 10.4 mph - N/A   Clear
5:52 AM 59.0 °F - 52.0 °F 78% 30.08 in 10.0 mi SSE 12.7 mph - N/A   Clear
6:52 AM 59.0 °F - 52.0 °F 78% 30.09 in 10.0 mi SSE 11.5 mph - N/A   Clear
7:52 AM 61.0 °F - 53.1 °F 75% 30.12 in 10.0 mi SSE 11.5 mph - N/A   Clear
8:52 AM 66.0 °F - 54.0 °F 65% 30.12 in 10.0 mi SSE 10.4 mph - N/A   Clear
9:52 AM 71.1 °F - 55.9 °F 59% 30.12 in 10.0 mi South 15.0 mph 20.7 mph N/A   Clear
10:52 AM 75.0 °F - 57.0 °F 53% 30.12 in 10.0 mi South 12.7 mph - N/A   Clear
11:52 AM 77.0 °F - 57.0 °F 50% 30.12 in 10.0 mi SSW 8.1 mph - N/A   Clear
12:52 PM 79.0 °F - 57.9 °F 48% 30.09 in 10.0 mi South 5.8 mph - N/A   Clear
1:52 PM 82.0 °F 81.7 °F 57.0 °F 42% 30.07 in 10.0 mi Variable 4.6 mph - N/A   Clear
2:52 PM 82.9 °F 82.1 °F 55.9 °F 39% 30.05 in 10.0 mi SSE 6.9 mph - N/A   Clear
3:28 PM 84.2 °F 83.0 °F 55.4 °F 37% 30.07 in 10.0 mi ESE 8.1 mph - N/A   Partly Cloudy
3:52 PM 84.0 °F 83.3 °F 57.0 °F 40% 30.03 in 10.0 mi SE 9.2 mph - N/A   Clear
4:52 PM 82.9 °F 82.0 °F 55.0 °F 38% 30.02 in 10.0 mi SSE 13.8 mph - N/A   Clear
5:52 PM 82.4 °F 81.4 °F 53.6 °F 37% 30.05 in 10.0 mi SSE 11.5 mph - N/A   Clear
6:52 PM 79.0 °F - 55.9 °F 45% 30.02 in 10.0 mi SE 10.4 mph - N/A   Clear
7:52 PM 75.0 °F - 55.0 °F 50% 30.03 in 10.0 mi SE 9.2 mph - N/A   Clear
8:52 PM 72.0 °F - 55.9 °F 57% 30.04 in 10.0 mi SE 9.2 mph - N/A   Clear
9:52 PM 72.0 °F - 55.0 °F 55% 30.06 in 10.0 mi SE 12.7 mph - N/A   Clear
10:52 PM 69.1 °F - 55.9 °F 63% 30.06 in 10.0 mi SSE 9.2 mph - N/A   Clear
11:52 PM 66.9 °F - 55.9 °F 68% 30.06 in 10.0 mi SSE 11.5 mph - N/A   Clear